User: anonymous   Login
Location: Paderno d�Adda
(45.6667°N, 9.4333°E)
Time: 21:43:56
(UTC+00:00)
Language:

Cosmos 1125 Rocket - Orbit

View from above orbital plane
View from above orbital plane
View from above satellite
View from above satellite

Ground track
Ground track

The orbit data is extracted from the following two-line orbital elements,

1 11511U 79078B   21134.61340019  .00000033  00000-0  19911-4 0  9996
2 11511  74.0368 211.3489 0014478 107.4092 252.8645 14.36925030183348
Epoch (UTC): 14 May 2021 14:43:17
Eccentricity: 0.0014478
inclination: 74.0368°
perigee height: 758 km
apogee height: 779 km
right ascension of ascending node: 211.3489°
argument of perigee: 107.4092°
revolutions per day: 14.36925030
mean anomaly at epoch: 252.8645°
orbit number at epoch: 18334

The dashed part of the orbit path shows where the satellite is in the earth's shadow,  

DLR